Location: ????????
(55.0097°N, 38.5678°E)
Time: 00:26:38
(UTC+00:00)

NOSS 3-1 (C) - Pass Details

Date: 21 December 2025
Orbit: 618 x 1583 km, 63.4° (Epoch: 10 January)

Event Time Altitude Azimuth Distance (km) Brightness Sun altitude
Rises 16:39:45 0° 232° (SW) 3,013 6.8 -29.8°
Reaches altitude 10° 16:41:53 10° 233° (SW) 2,173 5.9 -30.1°
Enters shadow 16:45:34 54° 240° (WSW) 940 3.6 -30.6°
